Contract 0xbeea392a0cbf2e871bc35d4df813a01c62778872

 
 
Txn Hash Method
Block
From
To
Value [Txn Fee]
0xf848c29cb927bb66ae7aa524d2f9732299049dbb5950d29a8ec5deb2a7b6a136Sell115731602021-03-04 0:18:37576 days 57 mins ago0xef1d0c6244e7a8c9640b08758a8425b5d2a5bdcb IN  0xbeea392a0cbf2e871bc35d4df813a01c627788720 MATIC0.0020252710
0xa46af06ab140d88438741d4f3b6ec5b293910b0d12cf92a28100a72ac387da3aSell115731402021-03-04 0:17:57576 days 58 mins ago0xef1d0c6244e7a8c9640b08758a8425b5d2a5bdcb IN  0xbeea392a0cbf2e871bc35d4df813a01c627788720 MATIC0.0020253910
0xf2471e06a2b47089025dae21be85327c66554f73fb01ad85e4b2d09e56d06d37Sell115731312021-03-04 0:17:39576 days 58 mins ago0xef1d0c6244e7a8c9640b08758a8425b5d2a5bdcb IN  0xbeea392a0cbf2e871bc35d4df813a01c627788720 MATIC0.0020251510
0x2b755397e657e3f5ba4c38b20a2b352f117a344749c3e051488633a334aa4f82Sell115730322021-03-04 0:14:13576 days 1 hr ago0xef1d0c6244e7a8c9640b08758a8425b5d2a5bdcb IN  0xbeea392a0cbf2e871bc35d4df813a01c627788720 MATIC0.0004619310
0xb1f7a8c69f89dbd0061f5505065e9238de136b0c0b64283164008b6b86fd6a94Buy115730202021-03-04 0:13:49576 days 1 hr ago0xef1d0c6244e7a8c9640b08758a8425b5d2a5bdcb IN  0xbeea392a0cbf2e871bc35d4df813a01c627788720 MATIC0.0024230110
0x146bc00e65064245ee2232b14bb000c770e0c3bcc27707953325669fb8658f62Sell115729692021-03-04 0:12:03576 days 1 hr ago0xef1d0c6244e7a8c9640b08758a8425b5d2a5bdcb IN  0xbeea392a0cbf2e871bc35d4df813a01c627788720 MATIC0.0004621710
0x2b6edcbb7ba1cff3faa38994497cdc0025e4a4dba3481d1f4f51c829e8aa1124Sell115729632021-03-04 0:11:51576 days 1 hr ago0xef1d0c6244e7a8c9640b08758a8425b5d2a5bdcb IN  0xbeea392a0cbf2e871bc35d4df813a01c627788720 MATIC0.0004621710
0x60ecbb5c099080626a589ad294cf4161cd4614ab56355b32ab3652710a74308cSell115728542021-03-04 0:08:05576 days 1 hr ago0xef1d0c6244e7a8c9640b08758a8425b5d2a5bdcb IN  0xbeea392a0cbf2e871bc35d4df813a01c627788720 MATIC0.0004620510
0x1754d141fa1d13a4068d0139200da522b4ba507c40b6de324514bfedcf3a44b5Sell115728422021-03-04 0:07:41576 days 1 hr ago0xef1d0c6244e7a8c9640b08758a8425b5d2a5bdcb IN  0xbeea392a0cbf2e871bc35d4df813a01c627788720 MATIC0.0004620510
0xfab2836baefe851881116e8678721248fd1a66d60dbd94a0b614690780ae69bfSell115727782021-03-04 0:05:29576 days 1 hr ago0xef1d0c6244e7a8c9640b08758a8425b5d2a5bdcb IN  0xbeea392a0cbf2e871bc35d4df813a01c627788720 MATIC0.0004620510
0xd0f1c16b1893cf9356c8ad99311267d67707312d5873f7c9f9b46266ea3bdbadSell115726902021-03-04 0:02:29576 days 1 hr ago0xef1d0c6244e7a8c9640b08758a8425b5d2a5bdcb IN  0xbeea392a0cbf2e871bc35d4df813a01c627788720 MATIC0.0004621710
0x83e1273d9f0aedd6fd2d86cb94cc9e3800ad61fb395ff68793b419fb210d573aSell115538092021-03-03 13:04:43576 days 12 hrs ago0xef1d0c6244e7a8c9640b08758a8425b5d2a5bdcb IN  0xbeea392a0cbf2e871bc35d4df813a01c627788720 MATIC0.0004619310
0xf9626acd2dac854feaf66f43760b74f7411ee9ac653c6cd62ac9d46cc76d1d7dSell115528512021-03-03 12:31:41576 days 12 hrs ago0xef1d0c6244e7a8c9640b08758a8425b5d2a5bdcb IN  0xbeea392a0cbf2e871bc35d4df813a01c627788720 MATIC0.0004619310
0xf737a37d2eb484009aa908f67cc1f961d41f3c574eda569533e2b4dcd54d8d95Sell115528362021-03-03 12:31:11576 days 12 hrs ago0xef1d0c6244e7a8c9640b08758a8425b5d2a5bdcb IN  0xbeea392a0cbf2e871bc35d4df813a01c627788720 MATIC0.0004025210
0x67f624b8af5d9f9393479f161d6c07152ef291b2d64acfa0914e18329d3ece19Sell115528302021-03-03 12:30:55576 days 12 hrs ago0xef1d0c6244e7a8c9640b08758a8425b5d2a5bdcb IN  0xbeea392a0cbf2e871bc35d4df813a01c627788720 MATIC0.0004619310
0x7ea77bcd999cd08805e7c1ee3a28725a4a3566f36be91b2777a2e890164d98a3Sell115527972021-03-03 12:29:49576 days 12 hrs ago0xef1d0c6244e7a8c9640b08758a8425b5d2a5bdcb IN  0xbeea392a0cbf2e871bc35d4df813a01c627788720 MATIC0.0004621710
0xa526cbf9e613a91b9d55f99a64dfb0e264a8736a0bd0bf518e56de2b0cbc4d7fSell115527802021-03-03 12:29:15576 days 12 hrs ago0xef1d0c6244e7a8c9640b08758a8425b5d2a5bdcb IN  0xbeea392a0cbf2e871bc35d4df813a01c627788720 MATIC0.0004621710
0xd02e7cef62a77fdd2e4ff67e3885eaa2326c0f2e28752731c2219b0329b01684Sell115527622021-03-03 12:28:35576 days 12 hrs ago0xef1d0c6244e7a8c9640b08758a8425b5d2a5bdcb IN  0xbeea392a0cbf2e871bc35d4df813a01c627788720 MATIC0.0004621710
0xe1a811d9d5a93fd2ddc95f1fa117f0d7ce6b167f080b37270c24ef64a490bda6Sell115527532021-03-03 12:28:17576 days 12 hrs ago0xef1d0c6244e7a8c9640b08758a8425b5d2a5bdcb IN  0xbeea392a0cbf2e871bc35d4df813a01c627788720 MATIC0.0004027610
0x0ce09f427133a1b9d13ffb2a2c693edb2ce2795b55f56bf4b4827eff362dac46Sell115527432021-03-03 12:27:57576 days 12 hrs ago0xef1d0c6244e7a8c9640b08758a8425b5d2a5bdcb IN  0xbeea392a0cbf2e871bc35d4df813a01c627788720 MATIC0.0004027610
0x576eb34b15ea41f84611240b5c75c4d2d884c87b37841fd72aad2055b6466f24Buy115232642021-03-02 18:29:43577 days 6 hrs ago0xef1d0c6244e7a8c9640b08758a8425b5d2a5bdcb IN  0xbeea392a0cbf2e871bc35d4df813a01c627788720 MATIC0.0022733710
0xf9f576b2ed43131782e8a01ab9185fe017d4ef86dde7b3f51a8537b0afab5e37Buy115232552021-03-02 18:29:21577 days 6 hrs ago0xef1d0c6244e7a8c9640b08758a8425b5d2a5bdcb IN  0xbeea392a0cbf2e871bc35d4df813a01c627788720 MATIC0.0004011510
0x3151e9c632f319d152c284017f04f77f31eed17e93c2157cf3e49c24f4c258b3Buy115232032021-03-02 18:27:37577 days 6 hrs ago0xef1d0c6244e7a8c9640b08758a8425b5d2a5bdcb IN  0xbeea392a0cbf2e871bc35d4df813a01c627788720 MATIC0.0022732510
0xd80fee8c3e47969adf19ae6a8347758e268683b398c18fd2fe5092a2acd61dd0Buy115231962021-03-02 18:27:19577 days 6 hrs ago0xef1d0c6244e7a8c9640b08758a8425b5d2a5bdcb IN  0xbeea392a0cbf2e871bc35d4df813a01c627788720 MATIC0.0022733710
0x96d1dcc325014fd9d7242284933def8af2beeb86d108b7a7aff7dd1aa18b6ff9Buy115231832021-03-02 18:26:53577 days 6 hrs ago0xef1d0c6244e7a8c9640b08758a8425b5d2a5bdcb IN  0xbeea392a0cbf2e871bc35d4df813a01c627788720 MATIC0.0022733710
[ Download CSV Export 
Latest 1 internal transaction
Parent Txn Hash Block From To Value
0xa1748b01d41aa6aa527b359cff25b893ef50b3d36b9c63403cb66499d581706d97536122021-01-18 16:58:20620 days 8 hrs ago 0x8b9805a2f595b6705e74f7310829f2d299d21522  Contract Creation0 MATIC
[ Download CSV Export 
Loading
Are you the contract creator? Verify and Publish your contract source code today!
This contract was created by the contract code at 0x8b9805a2f595b6705e74f7310829f2d299d21522
Note: We also found another 8172 contracts with exact matching byte codes

Decompile ByteCode Is this a proxy?
0x363d3d373d3d3d363d730b8a853ad2e8984a429f36dabc75f0cbdd5534f85af43d82803e903d91602b57fd5bf3 
Block Transaction Gas Used Reward
Age Block Fee Address BC Fee Address Voting Power Jailed Incoming
Block Uncle Number Difficulty Gas Used Reward
Loading
Loading
Make sure to use the "Vote Down" button for any spammy posts, and the "Vote Up" for interesting conversations.